[keps] orb10189.2l.amsat
Ray Hoad
ray.hoad at mypbmail.com
Thu Jul 8 19:48:54 PDT 2010
SB KEPS @ AMSAT $ORB10189.N
2Line Orbital Elements 10189.AMSAT
HR AMSAT ORBITAL ELEMENTS FOR AMATEUR SATELLITES IN NASA FORMAT
FROM WA5QGD FORT WORTH,TX July 8, 2010
Send Subscribe/unsubscribe to KEPS at http://www.amsat.org/mailman/listinfo/keps
BID: ORB10189.N
DECODE 2-LINE ELSETS WITH THE FOLLOWING KEY:
1 AAAAAU 00 0 0 BBBBB.BBBBBBBB .CCCCCCCC 00000-0 00000-0 0 DDDZ
2 AAAAA EEE.EEEE FFF.FFFF GGGGGGG HHH.HHHH III.IIII JJ.JJJJJJJJKKKKKZ
KEY: A-CATALOGNUM B-EPOCHTIME C-DECAY D-ELSETNUM E-INCLINATION F-RAAN
G-ECCENTRICITY H-ARGPERIGEE I-MNANOM J-MNMOTION K-ORBITNUM Z-CHECKSUM
TO ALL RADIO AMATEURS BT
AO-07
1 07530U 74089B 10188.55324501 -.00000027 00000-0 10000-3 0 08214
2 07530 101.3998 203.6290 0011612 234.0179 125.9816 12.53578788631003
FO-29
1 24278U 96046B 10189.55120049 .00000009 00000-0 42076-4 0 3483
2 24278 098.5151 015.7283 0351462 068.4635 295.3576 13.52951016685990
SO-33
1 25509U 98061B 10189.57764367 .00000054 00000-0 -64916-6 0 7494
2 25509 031.4313 027.5550 0353486 117.0302 246.6854 14.28313036611111
RS-22
1 27939U 03042A 10189.66157012 -.00000013 00000-0 63004-5 0 3432
2 27939 097.8902 054.2344 0013887 357.1553 002.9561 14.63431349362096
VO-52
1 28650U 05017B 10189.74242202 .00000132 00000-0 23169-4 0 5465
2 28650 097.6910 242.3356 0026411 204.0003 155.9920 14.81769533279885
SO-67
1 35870U 09049F 10189.70571140 .00000376 00000-0 20019-4 0 8912
2 35870 097.3302 238.2709 0004142 043.4184 105.0052 15.20945938 44721
HO-68
1 36122U 09072B 10189.60642434 -.00000045 00000-0 00000 0 0 4679
2 36122 100.4669 249.8179 0007184 289.7593 070.2750 13.16281144 27039
UO-11
1 14781U 84021B 10189.45696989 .00000381 00000-0 57632-4 0 2825
2 14781 098.0536 241.2619 0009231 163.3748 196.7870 14.79815919414951
AO-16
1 20439U 90005D 10188.87321015 .00000013 00000-0 20515-4 0 9381
2 20439 098.3332 145.9662 0011853 102.8433 257.4072 14.31866227 68348
LO-19
1 20442U 90005G 10188.86761218 -.00000054 00000-0 -46910-5 0 8493
2 20442 098.2922 151.6786 0012866 097.9054 262.3582 14.32096934 68516
AO-27
1 22825U 93061C 10188.87441693 .00000082 00000-0 48850-4 0 5724
2 22825 098.4845 136.2898 0007831 203.3101 156.7729 14.29301867875003
IO-26
1 22826U 93061D 10188.79619153 -.00000002 00000-0 16104-4 0 03092
2 22826 098.4797 136.8077 0008500 198.4450 161.6412 14.29557832875100
GO-32
1 25397U 98043D 10188.84100346 .00000038 00000-0 34921-4 0 02294
2 25397 098.3125 195.1529 0001156 150.6564 209.4673 14.23180773622982
NO-44
1 26931U 01043C 10188.84240249 .00000009 00000-0 35850-4 0 05035
2 26931 067.0499 150.7569 0005382 263.3389 096.7099 14.29602085457703
SO-50
1 27607U 02058C 10188.60008737 .00000003 00000-0 22087-4 0 02186
2 27607 064.5592 294.5165 0035615 067.3240 293.1623 14.71553074405382
CO-55
1 27844U 03031E 10188.51890762 .00000029 00000-0 33894-4 0 08854
2 27844 098.7088 197.2002 0010697 108.9575 251.2755 14.20716283363975
CO-57
1 27848U 03031J 10188.05841065 .00000031 00000-0 34626-4 0 08351
2 27848 098.7114 195.8424 0010395 114.3822 245.8444 14.20508287363867
AO-51
1 28375U 04025K 10188.49826283 .00000010 00000-0 15496-4 0 07196
2 28375 098.0627 180.8376 0085185 035.9015 324.7860 14.40689963316439
GENESAT1
1 29655U 06058C 10189.51997394 .00157746 16450-4 28153-3 0 1570
2 29655 040.0175 248.6817 0007777 110.4279 249.7388 16.00922302203409
CP3
1 31129U 07012N 10188.81647962 .00000219 00000-0 60831-4 0 6213
2 31129 097.9372 227.2848 0103213 168.9156 191.4311 14.52275089170858
CO-65
1 32785U 08021C 10189.30229851 .00000373 00000-0 53977-4 0 7261
2 32785 097.8950 253.9368 0014158 212.4326 147.6007 14.81677215118614
KKS-1
1 33493U 09002B 10189.73907015 .00000371 00000-0 54798-4 0 6438
2 33493 098.0878 309.4175 0021387 072.6963 287.6592 14.81028783 78676
SOHLA-1
1 33496U 09002E 10189.81392391 .00000028 00000-0 12951-4 0 1478
2 33496 098.0595 298.6105 0007456 128.7737 231.4140 14.69502090 78052
NOAA-10
1 16969U 86073A 10188.62113097 .00000000 00000-0 17924-4 0 01261
2 16969 098.6555 217.3958 0012646 148.3993 211.7949 14.27420650238492
NOAA-11
1 19531U 88089A 10188.81824941 -.00000145 00000-0 -52491-4 0 01389
2 19531 098.7692 277.4928 0012445 088.7767 271.4839 14.14928871124051
NOAA-12
1 21263U 91032A 10188.77453134 .00000040 00000-0 35568-4 0 06263
2 21263 098.7647 201.9302 0013351 104.9465 255.3195 14.25642613995339
MET-3/5
1 21655U 91056A 10189.60340249 .00000051 00000-0 10000-3 0 8569
2 21655 082.5594 293.5050 0012312 298.6226 061.3587 13.17022984908499
MET-2/21
1 22782U 93055A 10188.68394666 -.00000018 00000-0 -30009-4 0 08243
2 22782 082.5471 236.1800 0022002 349.6181 010.4520 13.83645106850910
OKEAN-4
1 23317U 94066A 10188.83568885 .00000128 00000-0 12804-4 0 2780
2 23317 082.5418 334.5836 0022276 169.3675 190.8042 14.82832778849515
NOAA-14
1 23455U 94089A 10188.73650177 .00000024 00000-0 36349-4 0 01170
2 23455 098.8783 269.3378 0009301 172.2785 187.8522 14.13789621800404
NOAA-15
1 25338U 98030A 10188.58893807 .00000008 00000-0 22169-4 0 04387
2 25338 098.6198 175.1474 0011087 021.1818 338.9840 14.24838347631651
RESURS
1 25394U 98043A 10189.63507893 .00000004 00000-0 19199-4 0 5473
2 25394 098.3041 206.5472 0001768 123.1048 237.0307 14.24205327623404
FENGYUN1
1 25730U 99025A 10189.47917132 .00000025 00000-0 39723-4 0 845
2 25730 098.7857 153.8800 0020723 205.9712 154.0427 14.08189737574689
OKEAN-0
1 25860U 99039A 10189.46517684 .00000046 00000-0 14417-4 0 409
2 25860 097.8329 161.4408 0001661 052.2971 307.8390 14.73648007590032
NOAA-16
1 26536U 00055A 10188.62602231 -.00000148 00000-0 -54429-4 0 09153
2 26536 099.1698 206.5758 0009608 281.5917 078.4192 14.12565128504718
NOAA-17
1 27453U 02032A 10188.93261687 .00000079 00000-0 52402-4 0 09160
2 27453 098.4302 238.5408 0012758 078.4015 281.8576 14.24171558417655
NOAA-18
1 28654U 05018A 10188.93003690 -.00000109 00000-0 -35343-4 0 04008
2 28654 098.9494 135.1346 0014570 359.0580 001.0581 14.11368232264367
NOAA-19
1 33591U 09005A 10188.92255601 -.00000130 00000-0 -48061-4 0 05976
2 33591 098.7876 130.6028 0013146 229.0133 130.9922 14.11064356072830
HUBBLE
1 20580U 90037B 10189.12550785 .00000406 00000-0 18222-4 0 5980
2 20580 028.4681 103.1700 0003373 068.1193 291.9745 15.00995398907903
ISS
1 25544U 98067A 10190.00027912 .00006815 00000-0 54849-4 0 4755
2 25544 051.6461 118.9352 0010301 057.8761 044.0550 15.72282046666905
CO-58
1 28895U 05043F 10188.61154042 .00000116 00000-0 33693-4 0 6257
2 28895 098.0127 072.4103 0016926 219.2510 140.7466 14.59907667249964
FALCON
1 30776U 07006E 10188.59855289 .00000442 00000-0 34600-4 0 08777
2 30776 035.4341 280.3668 0001649 338.5622 021.5025 15.03708471183134
MAST
1 31126U 07012K 10188.66624523 .00000088 00000-0 30134-4 0 9075
2 31126 097.9362 229.6185 0094547 161.8316 198.6292 14.53600126171036
CAPE1
1 31130U 07012P 10188.80659317 .00000199 00000-0 56432-4 0 09291
2 31130 097.9389 227.1213 0102252 169.2891 191.0491 14.52195989170658
COMPASS
1 32787U 08021E 10189.30316139 .00000265 00000-0 40074-4 0 7173
2 32787 097.8934 253.7703 0015149 213.2804 146.7410 14.81903856118622
AAUSAT2
1 32788U 08021F 10188.69652965 .00000591 00000-0 80970-4 0 07121
2 32788 097.8930 253.3040 0014571 216.8269 143.1916 14.82049102118540
DO-64
1 32789U 08021G 10188.77089967 .00000584 00000-0 79822-4 0 07291
2 32789 097.9000 253.8740 0014951 214.0523 145.9695 14.82201584118556
CO-66
1 32791U 08021J 10188.18014593 .00000014 00000-0 85240-5 0 07113
2 32791 097.8952 252.6761 0015257 216.1249 143.8913 14.81683481118416
RS-30
1 32953U 08025A 10189.61999529 .00000010 00000-0 00000 0 0 8513
2 32953 082.5003 016.3483 0019864 056.9223 303.3759 12.43006185 96401
TACSAT-3
1 35001U 09028A 10189.87316863 .00002838 00000-0 70184-4 0 3280
2 35001 040.4563 083.8228 0020301 170.7169 189.4026 15.41966089 63986
PHARMSAT
1 35002U 09028B 10188.84850495 .00002849 00000-0 69168-4 0 03160
2 35002 040.4684 087.9055 0022910 166.1340 194.0099 15.42471218063845
HAWKSAT1
1 35003U 09028C 10189.87796487 .00005487 00000-0 11476-3 0 3344
2 35003 040.4608 075.8783 0021724 190.9384 169.0926 15.45734782 64079
CP6
1 35004U 09028D 10188.89429528 .00007575 00000-0 15186-3 0 03314
2 35004 040.4627 080.7370 0020730 187.2259 172.8198 15.46616316063923
AEROCUB3
1 35005U 09028E 10189.83961455 .00020477 00000-0 32597-3 0 3726
2 35005 040.4709 071.4797 0019270 214.8747 145.0800 15.52520464 64110
DRAGNSAT
1 35690U 09038B 10076.22711312 .05715194 12509-4 31481-3 0 3162
2 35690 051.6170 315.4586 0004999 310.9891 057.3269 16.42150010 36561
POLLUX
1 35693U 09038E 10087.99866888 .23496735 12787-4 17715-3 0 3529
2 35693 051.6099 254.5746 0006270 294.4866 097.5899 16.52338462 38395
CASTOR
1 35694U 09038F 10189.87826505 .00098115 15952-4 12777-3 0 5383
2 35694 051.6348 083.6132 0000444 218.0385 142.0603 16.06859735 54542
METEOR-M
1 35865U 09049A 10189.80873597 .00000176 00000-0 10000-3 0 4538
2 35865 098.7561 243.4520 0002329 326.5986 033.5009 14.21830860 41794
RS-38
1 35869U 09049E 10189.70752958 .00000177 00000-0 10000-3 0 4618
2 35869 098.7557 243.3863 0004284 313.1723 046.9049 14.21984690 41787
/EX
More information about the Keps
mailing list